| time (UTC) | temp C | wind direction | speed KPH | gust KPH | rain 1hr cm | rain 24hr cm | rain mn cm | humidity % | barometer mb |
| 20260508183914 | 17 | 247 | 1.6 | 4.8 | 0.00 | 0.00 | 0.00 | 38 | 1019.8 |
| 20260508183013 | 17 | 245 | 6.4 | 8.0 | 0.00 | 0.00 | 0.00 | 38 | 1019.8 |
| 20260508182014 | 17 | 219 | 1.6 | 6.4 | 0.00 | 0.00 | 0.00 | 37 | 1020.1 |
| 20260508181013 | 17 | 263 | 6.4 | 9.7 | 0.00 | 0.00 | 0.00 | 36 | 1020.1 |
| 20260508180013 | 17 | 147 | 1.6 | 4.8 | 0.00 | 0.00 | 0.00 | 35 | 1020.1 |
| 20260508175031 | 17 | 34 | 3.2 | 6.4 | 0.00 | 0.00 | 0.00 | 36 | 1020.2 |
| 20260508174028 | 16 | 147 | 3.2 | 4.8 | 0.00 | 0.00 | 0.00 | 37 | 1020.4 |
| 20260508173113 | 16 | 70 | 3.2 | 4.8 | 0.00 | 0.00 | 0.00 | 36 | 1020.4 |
| 20260508170130 | 16 | 268 | 1.6 | 3.2 | 0.00 | 0.00 | 0.00 | 38 | 1021.1 |
| 20260508165112 | 16 | 38 | 1.6 | 4.8 | 0.00 | 0.00 | 0.00 | 35 | 1021.1 |
| 20260508164115 | 16 | 203 | 1.6 | 4.8 | 0.00 | 0.00 | 0.00 | 36 | 1021.1 |
| 20260508163112 | 16 | 136 | 3.2 | 6.4 | 0.00 | 0.00 | 0.00 | 35 | 1021.1 |
| 20260508162115 | 16 | 143 | 3.2 | 6.4 | 0.00 | 0.00 | 0.00 | 36 | 1021.2 |
| 20260508160129 | 15 | 49 | 0.0 | 3.2 | 0.00 | 0.00 | 0.00 | 35 | 1021.6 |
| 20260508155113 | 15 | 174 | 3.2 | 6.4 | 0.00 | 0.00 | 0.00 | 37 | 1021.7 |
| 20260508154212 | 15 | 134 | 3.2 | 4.8 | 0.00 | 0.00 | 0.00 | 36 | 1021.7 |
| 20260508153114 | 15 | 173 | 3.2 | 6.4 | 0.00 | 0.00 | 0.00 | 39 | 1021.7 |
| 20260508151113 | 13 | 67 | 0.0 | 3.2 | 0.00 | 0.00 | 0.00 | 43 | 1021.7 |
| 20260508150113 | 13 | 70 | 1.6 | 3.2 | 0.00 | 0.00 | 0.00 | 45 | 1021.8 |
| 20260508145212 | 12 | 75 | 0.0 | 4.8 | 0.00 | 0.00 | 0.00 | 48 | 1021.8 |
| 20260508144212 | 12 | 157 | 3.2 | 4.8 | 0.00 | 0.00 | 0.00 | 47 | 1021.8 |
| 20260508143212 | 12 | 225 | 0.0 | 0.0 | 0.00 | 0.00 | 0.00 | 46 | 1021.7 |
| 20260508141213 | 11 | 233 | 1.6 | 6.4 | 0.00 | 0.00 | 0.00 | 45 | 1021.7 |
| 20260508135228 | 11 | 243 | 0.0 | 1.6 | 0.00 | 0.00 | 0.00 | 44 | 1021.7 |
| 20260508134315 | 11 | 270 | 0.0 | 0.0 | 0.00 | 0.00 | 0.00 | 46 | 1021.7 |
| 20260508133314 | 10 | 180 | 0.0 | 1.6 | 0.00 | 0.00 | 0.00 | 46 | 1021.5 |
| 20260508132312 | 10 | 157 | 0.0 | 4.8 | 0.00 | 0.00 | 0.00 | 47 | 1021.4 |
| 20260508131312 | 10 | 7 | 0.0 | 0.0 | 0.00 | 0.00 | 0.00 | 49 | 1021.3 |
| 20260508130314 | 9 | 202 | 0.0 | 0.0 | 0.00 | 0.00 | 0.00 | 51 | 1021.5 |
| 20260508125312 | 8 | 202 | 0.0 | 0.0 | 0.00 | 0.00 | 0.00 | 56 | 1021.3 |
| 20260508124314 | 7 | 202 | 0.0 | 0.0 | 0.00 | 0.00 | 0.00 | 69 | 1021.3 |
| 20260508123412 | 6 | 45 | 0.0 | 0.0 | 0.00 | 0.00 | 0.00 | 74 | 1021.2 |
| 20260508121512 | 3 | 45 | 0.0 | 0.0 | 0.00 | 0.00 | 0.00 | 83 | 1020.8 |
| 20260508120514 | 2 | 45 | 0.0 | 0.0 | 0.00 | 0.00 | 0.00 | 88 | 1020.7 |
| 20260508115613 | 2 | 45 | 0.0 | 0.0 | 0.00 | 0.00 | 0.00 | 87 | 1020.4 |
| 20260508114614 | 2 | 45 | 0.0 | 0.0 | 0.00 | 0.00 | 0.00 | 86 | 1020.4 |
| 20260508113615 | 2 | 45 | 0.0 | 0.0 | 0.00 | 0.03 | 0.00 | 89 | 1020.1 |
| 20260508112615 | 2 | 45 | 0.0 | 0.0 | 0.00 | 0.05 | 0.00 | 87 | 1019.9 |
| 20260508111613 | 2 | 45 | 0.0 | 0.0 | 0.00 | 0.05 | 0.00 | 85 | 1019.8 |
| 20260508110630 | 2 | 45 | 0.0 | 0.0 | 0.00 | 0.05 | 0.00 | 85 | 1019.7 |
| 20260508105712 | 2 | 45 | 0.0 | 0.0 | 0.00 | 0.05 | 0.00 | 85 | 1019.5 |
| 20260508104812 | 2 | 45 | 0.0 | 0.0 | 0.00 | 0.05 | 0.00 | 85 | 1019.4 |
| 20260508103813 | 2 | 45 | 0.0 | 0.0 | 0.00 | 0.08 | 0.00 | 86 | 1019.2 |
| 20260508102826 | 2 | 45 | 0.0 | 0.0 | 0.00 | 0.08 | 0.00 | 85 | 1018.9 |
| 20260508101826 | 2 | 45 | 0.0 | 0.0 | 0.00 | 0.10 | 0.00 | 85 | 1018.7 |
| 20260508100826 | 2 | 45 | 0.0 | 0.0 | 0.00 | 0.10 | 0.00 | 86 | 1018.5 |
| 20260508095826 | 2 | 45 | 0.0 | 0.0 | 0.00 | 0.10 | 0.00 | 86 | 1018.4 |
| 20260508093828 | 2 | 45 | 0.0 | 3.2 | 0.00 | 0.10 | 0.00 | 86 | 1018.3 |
| 20260508092826 | 2 | 45 | 0.0 | 0.0 | 0.00 | 0.10 | 0.00 | 87 | 1018.4 |
| 20260508090826 | 2 | 22 | 0.0 | 1.6 | 0.00 | 0.10 | 0.00 | 88 | 1018.1 |
| 20260508085826 | 2 | 135 | 0.0 | 0.0 | 0.00 | 0.10 | 0.00 | 89 | 1018.3 |
| 20260508084826 | 2 | 135 | 0.0 | 0.0 | 0.00 | 0.10 | 0.00 | 89 | 1018.2 |
| 20260508083924 | 3 | 135 | 0.0 | 0.0 | 0.00 | 0.10 | 0.00 | 89 | 1018.3 |
| 20260508081927 | 3 | 135 | 0.0 | 0.0 | 0.00 | 0.10 | 0.00 | 89 | 1018.4 |
| 20260508081025 | 3 | 135 | 0.0 | 0.0 | 0.00 | 0.10 | 0.00 | 88 | 1018.3 |
| 20260508080925 | 3 | 135 | 0.0 | 0.0 | 0.00 | 0.10 | 0.00 | 88 | 1018.3 |
| 20260508075925 | 3 | 135 | 0.0 | 0.0 | 0.00 | 0.10 | 0.00 | 86 | 1018.3 |
| 20260508074926 | 4 | 135 | 0.0 | 0.0 | 0.00 | 0.10 | 0.00 | 88 | 1018.2 |
| 20260508073925 | 4 | 135 | 0.0 | 0.0 | 0.00 | 0.10 | 0.00 | 85 | 1018.2 |
| 20260508072925 | 4 | 67 | 0.0 | 1.6 | 0.00 | 0.10 | 0.00 | 87 | 1018.1 |
| 20260508071943 | 4 | 69 | 0.0 | 4.8 | 0.00 | 0.10 | 0.00 | 88 | 1018.1 |
| 20260508070925 | 5 | 202 | 0.0 | 0.0 | 0.00 | 0.10 | 0.00 | 89 | 1018.1 |
| 20260508065942 | 5 | 135 | 0.0 | 0.0 | 0.00 | 0.10 | 0.00 | 89 | 1018.1 |
| 20260508064927 | 5 | 90 | 0.0 | 0.0 | 0.00 | 0.10 | 0.00 | 89 | 1018.1 |
| 20260508061925 | 5 | 157 | 0.0 | 1.6 | 0.00 | 0.10 | 0.00 | 91 | 1018.2 |
| 20260508061824 | 5 | 157 | 0.0 | 0.0 | 0.00 | 0.10 | 0.00 | 91 | 1018.3 |
| 20260508060825 | 5 | 94 | 0.0 | 1.6 | 0.00 | 0.10 | 0.00 | 92 | 1018.2 |
| 20260508055825 | 5 | 112 | 0.0 | 0.0 | 0.00 | 0.10 | 0.00 | 93 | 1018.2 |
| 20260508054825 | 5 | 112 | 0.0 | 6.4 | 0.00 | 0.10 | 0.00 | 93 | 1018.3 |
| 20260508053824 | 5 | 67 | 0.0 | 0.0 | 0.00 | 0.10 | 0.00 | 93 | 1018.4 |
| 20260508051924 | 5 | 5 | 0.0 | 6.4 | 0.00 | 0.10 | 0.00 | 93 | 1018.2 |
| 20260508050926 | 5 | 135 | 0.0 | 3.2 | 0.00 | 0.10 | 0.00 | 93 | 1018.4 |
| 20260508045942 | 5 | 135 | 0.0 | 0.0 | 0.00 | 0.10 | 0.00 | 93 | 1018.5 |
| 20260508045024 | 5 | 157 | 0.0 | 0.0 | 0.00 | 0.10 | 0.00 | 93 | 1018.4 |
| 20260508042126 | 5 | 22 | 0.0 | 0.0 | 0.00 | 0.13 | 0.00 | 93 | 1018.3 |
| 20260508041128 | 5 | 22 | 0.0 | 1.6 | 0.00 | 0.15 | 0.00 | 93 | 1018.2 |
| 20260508040225 | 5 | 22 | 0.0 | 0.0 | 0.00 | 0.15 | 0.00 | 94 | 1018.4 |
| 20260508035314 | 5 | 53 | 0.0 | 1.6 | 0.00 | 0.15 | 0.15 | 93 | 1018.4 |
| 20260508034313 | 5 | 90 | 0.0 | 0.0 | 0.00 | 0.15 | 0.15 | 93 | 1018.2 |
| 20260508032415 | 5 | 90 | 0.0 | 0.0 | 0.00 | 0.15 | 0.15 | 93 | 1018.4 |
| 20260508031416 | 5 | 157 | 0.0 | 0.0 | 0.00 | 0.15 | 0.15 | 93 | 1018.4 |
| 20260508030513 | 5 | 157 | 0.0 | 0.0 | 0.00 | 0.15 | 0.15 | 93 | 1018.3 |
| 20260508025515 | 5 | 157 | 0.0 | 0.0 | 0.00 | 0.15 | 0.15 | 92 | 1018.2 |
| 20260508024614 | 5 | 157 | 0.0 | 0.0 | 0.00 | 0.15 | 0.15 | 92 | 1018.0 |
| 20260508024514 | 5 | 157 | 0.0 | 0.0 | 0.00 | 0.15 | 0.15 | 92 | 1017.9 |
| 20260508023515 | 5 | 157 | 0.0 | 0.0 | 0.00 | 0.15 | 0.15 | 91 | 1017.9 |
| 20260508022613 | 5 | 157 | 0.0 | 0.0 | 0.00 | 0.15 | 0.15 | 91 | 1018.0 |
| 20260508021631 | 5 | 157 | 0.0 | 0.0 | 0.00 | 0.15 | 0.15 | 91 | 1017.9 |
| 20260508020613 | 6 | 157 | 0.0 | 0.0 | 0.00 | 0.18 | 0.15 | 91 | 1018.1 |
| 20260508015615 | 6 | 157 | 0.0 | 0.0 | 0.00 | 0.18 | 0.15 | 90 | 1017.7 |
| 20260508014614 | 6 | 157 | 0.0 | 0.0 | 0.00 | 0.18 | 0.15 | 91 | 1017.5 |
| 20260508013613 | 6 | 157 | 0.0 | 0.0 | 0.00 | 0.20 | 0.15 | 91 | 1017.5 |
| 20260508012628 | 6 | 157 | 0.0 | 0.0 | 0.00 | 0.25 | 0.15 | 91 | 1017.2 |
| 20260508011716 | 6 | 112 | 1.6 | 4.8 | 0.00 | 0.25 | 0.15 | 91 | 1017.1 |
| 20260508005812 | 6 | 79 | 0.0 | 1.6 | 0.00 | 0.28 | 0.15 | 91 | 1016.9 |
| 20260508004813 | 6 | 112 | 0.0 | 0.0 | 0.00 | 0.28 | 0.15 | 90 | 1016.7 |
| 20260508003814 | 6 | 135 | 0.0 | 0.0 | 0.00 | 0.28 | 0.15 | 90 | 1016.7 |
| 20260508002814 | 6 | 112 | 0.0 | 1.6 | 0.00 | 0.28 | 0.15 | 90 | 1016.4 |
| 20260508001815 | 6 | 157 | 0.0 | 1.6 | 0.00 | 0.28 | 0.15 | 89 | 1016.5 |
| 20260508000813 | 6 | 135 | 1.6 | 3.2 | 0.00 | 0.28 | 0.15 | 89 | 1016.5 |
| 20260507235814 | 6 | 135 | 3.2 | 6.4 | 0.00 | 0.28 | 0.15 | 87 | 1016.6 |
| 20260507234815 | 6 | 53 | 1.6 | 6.4 | 0.00 | 0.30 | 0.15 | 88 | 1016.6 |
| 20260507233913 | 6 | 142 | 3.2 | 6.4 | 0.00 | 0.33 | 0.15 | 86 | 1016.8 |
| 20260507232931 | 7 | 201 | 1.6 | 6.4 | 0.00 | 0.38 | 0.15 | 87 | 1016.7 |
| 20260507231915 | 7 | 20 | 0.0 | 0.0 | 0.00 | 0.38 | 0.15 | 86 | 1016.7 |
| 20260507231013 | 7 | 180 | 0.0 | 0.0 | 0.00 | 0.41 | 0.15 | 86 | 1016.7 |
| 20260507230014 | 7 | 146 | 1.6 | 4.8 | 0.00 | 0.41 | 0.15 | 85 | 1016.7 |
| 20260507225112 | 7 | 194 | 3.2 | 6.4 | 0.00 | 0.41 | 0.15 | 86 | 1016.7 |
| 20260507224114 | 7 | 18 | 4.8 | 11.3 | 0.00 | 0.46 | 0.15 | 87 | 1016.7 |
| 20260507223213 | 7 | 135 | 0.0 | 1.6 | 0.00 | 0.46 | 0.15 | 88 | 1016.7 |
| 20260507221231 | 8 | 78 | 0.0 | 4.8 | 0.00 | 0.46 | 0.15 | 86 | 1016.5 |
| 20260507220216 | 7 | 157 | 0.0 | 1.6 | 0.00 | 0.46 | 0.15 | 86 | 1016.3 |
| 20260507214312 | 8 | 256 | 0.0 | 1.6 | 0.00 | 0.48 | 0.15 | 86 | 1016.3 |
| 20260507213314 | 8 | 202 | 0.0 | 0.0 | 0.00 | 0.48 | 0.15 | 85 | 1016.3 |
| 20260507213212 | 8 | 202 | 0.0 | 0.0 | 0.00 | 0.48 | 0.15 | 85 | 1016.2 |
| 20260507212213 | 8 | 15 | 3.2 | 6.4 | 0.00 | 0.48 | 0.15 | 85 | 1016.0 |
| 20260507211214 | 9 | 124 | 0.0 | 3.2 | 0.00 | 0.48 | 0.15 | 84 | 1015.9 |
| 20260507210214 | 10 | 356 | 1.6 | 4.8 | 0.00 | 0.48 | 0.15 | 83 | 1016.0 |
| 20260507205314 | 10 | 12 | 1.6 | 6.4 | 0.00 | 0.48 | 0.15 | 81 | 1015.9 |
| 20260507204314 | 11 | 152 | 0.0 | 1.6 | 0.00 | 0.48 | 0.15 | 79 | 1015.7 |
| 20260507203315 | 11 | 325 | 1.6 | 6.4 | 0.00 | 0.48 | 0.15 | 78 | 1015.6 |
| 20260507202314 | 11 | 125 | 1.6 | 4.8 | 0.00 | 0.48 | 0.15 | 76 | 1015.7 |
| 20260507201314 | 12 | 43 | 1.6 | 3.2 | 0.00 | 0.48 | 0.15 | 75 | 1015.6 |
| 20260507200314 | 12 | 140 | 1.6 | 6.4 | 0.00 | 0.48 | 0.15 | 75 | 1015.4 |
| 20260507195314 | 13 | 157 | 0.0 | 3.2 | 0.00 | 0.48 | 0.15 | 73 | 1015.4 |
| 20260507194329 | 14 | 55 | 0.0 | 3.2 | 0.00 | 0.48 | 0.15 | 71 | 1015.6 |
| 20260507193412 | 15 | 11 | 3.2 | 8.0 | 0.00 | 0.48 | 0.15 | 70 | 1015.4 |
| 20260507192431 | 14 | 113 | 1.6 | 4.8 | 0.00 | 0.48 | 0.15 | 74 | 1015.5 |
| 20260507191413 | 13 | 116 | 0.0 | 3.2 | 0.00 | 0.48 | 0.15 | 76 | 1015.3 |
| 20260507190415 | 13 | 311 | 0.0 | 3.2 | 0.00 | 0.48 | 0.15 | 74 | 1015.6 |